Flag Weather past 2 weeks in Warminster Township, Pennsylvania, U.S.A.

Now
20 °F

Sunny.


Feels Like: 15 °F
Forecast: 22 / 42 °F
Wind: 3 mph from South

Location: Doylestown Airport

Current Time: Nov 22, 2014 at 8:18:23 AM

Latest Report: Nov 22, 2014 at 7:54 AM


Visibility: 10 mi

Pressure: 30.52 "Hg

Humidity: 71%

Dew point: 12 °F

Location of Warminster TownshipLocation

Historic Weather in Warminster Township — Graph

°F

Warminster Township temperature yesterday

Maximum temperature yesterday: 34 °F (at 12:54 PM)
Minimum temperature yesterday: 22 °F (at 10:54 PM)
Average temperature yesterday: 27 °F

Past Weeks' High & Low Weather Summary

 TemperatureHumidityPressure
High65 °F (Nov 11, 2:54 PM)100% (Nov 11, 6:54 AM)30.53 "Hg (Nov 11, 6:54 AM)
Low18 °F (Nov 19, 4:54 AM)34% (Nov 18, 1:54 PM)29.53 "Hg (Nov 17, 3:54 PM)
Average37 °F67%30.07 "Hg
* Reported Nov 7 6:54 AM — Nov 22 6:54 AM, Warminster Township, Weather by CustomWeather, © 2014

Note: Actual official high and low records may vary slightly from our data, if they occured in-between our weather recording intervals... More about our weather records

Advertising

Warminster Township weather history for previous 24 hours

 ConditionsComfort  
Time TempWeatherWind HumidityBarometerVisibility
6:54 AM
Nov 22
18 °FSunny.3 mph74%30.51 "Hg10 mi
5:54 AM19 °FClear.3 mph71%30.51 "Hg10 mi
4:54 AM20 °FClear.3 mph68%30.51 "Hg10 mi
3:54 AM19 °FClear.No wind74%30.50 "Hg10 mi
2:54 AM20 °FClear.No wind68%30.51 "Hg10 mi
1:54 AM20 °FClear.No wind68%30.53 "Hg10 mi
12:54 AM20 °FClear.No wind68%30.53 "Hg10 mi
11:54 PM
Nov 21
23 °FClear.No wind57%30.52 "Hg10 mi
10:54 PM22 °FClear.3 mph60%30.52 "Hg10 mi
9:54 PM25 °FClear.3 mph53%30.53 "Hg10 mi
8:54 PM25 °FClear.3 mph50%30.51 "Hg10 mi
7:54 PM27 °FClear.3 mph46%30.51 "Hg10 mi
6:54 PM28 °FClear.3 mph45%30.50 "Hg10 mi
5:54 PM28 °FClear.3 mph43%30.48 "Hg10 mi
4:54 PM30 °FClear.7 mph40%30.45 "Hg10 mi
3:54 PM32 °FSunny.8 mph36%30.42 "Hg10 mi
2:54 PM34 °FSunny.8 mph35%30.39 "Hg10 mi
1:54 PM34 °FSunny.13 mph35%30.37 "Hg10 mi
12:54 PM34 °FSunny.8 mph37%30.35 "Hg10 mi
11:54 AM32 °FSunny.17 mph40%30.34 "Hg10 mi
10:54 AM30 °FSunny.16 mph41%30.35 "Hg10 mi
9:54 AM29 °FSunny.17 mph43%30.34 "Hg10 mi
8:54 AM27 °FSunny.18 mph49%30.32 "Hg10 mi
Weather by CustomWeather, © 2014

See weather overviewHow to use our weather pages